Flag for Australia Weather past 2 weeks in Alice Springs, Northern Territory, Australia

Now
61 °F

Sunny.


Feels Like: 61 °F
Forecast: 40 / 74 °F
Wind: 14 mph from East

Location: Alice Springs Aerodrome

Current Time: Jul 26, 2014 at 10:43:28 AM

Latest Report: Jul 26, 2014 at 10:00 AM


Visibility: 10 mi

Pressure: 30.36 "Hg

Humidity: 39%

Dew point: 36 °F

Location of Alice SpringsLocation

Historic Weather in Alice Springs — Graph

°F

Alice Springs temperature yesterday

Maximum temperature yesterday: 68 °F (at 2:30 PM)
Minimum temperature yesterday: 45 °F (at 6:00 AM)
Average temperature yesterday: 55 °F

Past Weeks' High & Low Weather Summary

 TemperatureHumidityPressure
High79 °F (Jul 22, 2:00 PM)100% (Jul 13, 3:00 PM)30.36 "Hg (Jul 13, 3:00 PM)
Low32 °F (Jul 12, 5:30 AM)11% (Jul 21, 12:00 PM)29.92 "Hg (Jul 23, 2:30 PM)
Average54 °F59%30.17 "Hg
* Reported Jul 11 9:30 AM — Jul 26 9:30 AM, Alice Springs, Weather by CustomWeather, © 2014

Note: Actual official high and low records may vary slightly from our data, if they occured in-between our weather recording intervals... More about our weather records

Advertising

Alice Springs weather history for previous 24 hours

 ConditionsComfort  
Time TempWeatherWind HumidityBarometerVisibility
9:30 AM
Jul 26
59 °FSunny.13 mph42%30.36 "Hg10 mi
9:00 AM57 °FSunny.9 mph48%30.33 "Hg10 mi
8:30 AM52 °FSunny.2 mph62%30.33 "Hg10 mi
7:30 AM39 °FSunny.No wind87%30.33 "Hg10 mi
7:00 AM41 °FSunny.5 mph87%30.30 "Hg10 mi
6:30 AM39 °FClear.1 mph93%30.30 "Hg10 mi
6:00 AM39 °FClear.No wind93%30.30 "Hg10 mi
5:30 AM41 °FClear.5 mph87%30.27 "HgN/A
4:30 AM43 °FClear.7 mph87%30.27 "HgN/A
4:00 AM43 °FClear.1 mph87%30.27 "HgN/A
3:30 AM43 °FClear.No wind87%30.27 "HgN/A
3:00 AM43 °FClear.1 mph87%30.27 "HgN/A
2:30 AM43 °FClear.5 mph87%30.27 "HgN/A
1:30 AM46 °FClear.1 mph76%30.27 "HgN/A
1:00 AM45 °FClear.No wind81%30.27 "HgN/A
12:30 AM46 °FClear.No wind76%30.27 "HgN/A
11:30 PM
Jul 25
48 °FClear.No wind76%30.27 "HgN/A
10:30 PM50 °FClear.No wind71%30.27 "HgN/A
10:00 PM50 °FClear.2 mph71%30.27 "HgN/A
9:30 PM52 °FClear.No wind62%30.27 "HgN/A
9:00 PM54 °FClear.5 mph58%30.24 "HgN/A
8:30 PM55 °FClear.6 mph55%30.24 "HgN/A
8:00 PM57 °FClear.6 mph51%30.21 "HgN/A
7:30 PM57 °FClear.7 mph51%30.21 "HgN/A
7:00 PM57 °FClear.7 mph51%30.18 "HgN/A
6:30 PM61 °FClear.7 mph45%30.18 "HgN/A
5:30 PM66 °FSunny.7 mph35%30.15 "HgN/A
5:00 PM68 °FSunny.8 mph30%30.15 "Hg10 mi
4:30 PM68 °FSunny.8 mph33%30.15 "Hg10 mi
3:30 PM68 °FPassing clouds.9 mph30%30.15 "HgN/A
3:00 PM68 °FSunny.9 mph33%30.15 "Hg10 mi
2:30 PM68 °FPassing clouds.8 mph33%30.15 "HgN/A
2:00 PM66 °FPassing clouds.13 mph35%30.15 "HgN/A
1:30 PM64 °FSunny.9 mph37%30.15 "Hg10 mi
1:00 PM66 °FSunny.10 mph32%30.18 "HgN/A
12:30 PM64 °FSunny.9 mph34%30.21 "HgN/A
12:00 PM63 °FSunny.9 mph39%30.21 "HgN/A
11:30 AM63 °FSunny.10 mph37%30.24 "HgN/A
10:30 AM59 °FSunny.12 mph42%30.24 "Hg10 mi
Weather by CustomWeather, © 2014

See weather overviewHow to use our weather pages